User: anonymous   Login
Location: Fort Wayne
(41.1310°N, 85.1290°W)
Time: 01:41:35
(UTC-05:00)
Language:

Cosmos 2082 - Orbit

View from above orbital plane
View from above orbital plane
View from above satellite
View from above satellite

Ground track
Ground track

The orbit data is extracted from the following two-line orbital elements,

1 20624U 90046A   17017.89241363 +.00000005 +00000-0 +27301-4 0  9997
2 20624 071.0388 169.1374 0017094 257.5074 102.4136 14.14210356375723
Epoch (UTC): 17 January 2017 21:25:04
Eccentricity: 0.0017094
inclination: 71.0388°
perigee height: 832 km
apogee height: 857 km
right ascension of ascending node: 169.1374°
argument of perigee: 257.5074°
revolutions per day: 14.14210356
mean anomaly at epoch: 102.4136°
orbit number at epoch: 37572

The dashed part of the orbit path shows where the satellite is in the earth's shadow,  

DLR